Regional Weather Roundup
Issued by NWS

Home | Current Version | Previous Version | Text Only | Print | Product List | Glossary On
Versions: 1 2 3 4 5 6 7 8 9 10 11 12 13 14 15 16 17 18 19 20 21 22 23 24 25 26 27 28 29 30 31 32 33 34 35 36
000
ASUS45 KREV 231010
RWRNV
NEVADA REGIONAL WEATHER ROUNDUP
NATIONAL WEATHER SERVICE RENO NV
300 AM PDT THU OCT 23 2014

NOTE: "FAIR" INDICATES FEW OR NO CLOUDS BELOW 12,000 FEET WITH NO
SIGNIFICANT WEATHER AND/OR OBSTRUCTIONS TO VISIBILITY.

NVZ001-003-004-231100-
WESTERN NEVADA

CITY           SKY/WX    TMP DP  RH WIND       PRES   REMARKS
RENO           MOCLDY    50  29  44 NW3       30.09F
CARSON CITY    FAIR      45  27  49 CALM      30.11F
MINDEN         FAIR      43  27  52 N3        30.12
SLIDE MTN        N/A     36  23  60 W36         N/A
FALLON         CLOUDY    51  21  30 SE7       30.07S
LOVELOCK       CLOUDY    47  24  40 SE6       30.06S
HAWTHORNE      CLEAR     48  34  57 CALM      30.09F
$$

NVZ002-CAZ072-073-231100-
NORTHERN AND CENTRAL SIERRA

CITY           SKY/WX    TMP DP  RH WIND       PRES   REMARKS
S. LAKE TAHOE  MOCLDY    49  24  37 VRB3      30.17S
TRUCKEE        MOCLDY    32  27  80 CALM      30.16F
SQUAW VLY 8000 NOT AVBL
SUSANVILLE     PTCLDY    46  36  66 N3        30.07
BLUE CANYON    CLOUDY    53  28  38 SE6       30.16S
MAMMOTH LAKES  FAIR      39  18  41 NW6       30.24F
$$

NVZ030-031-036-231100-
NORTHERN NEVADA

CITY           SKY/WX    TMP DP  RH WIND       PRES   REMARKS
ELKO           MOCLDY    42  20  41 E7        30.11S
WINNEMUCCA     CLOUDY    47  28  47 W5        30.07R
WENDOVER       PTCLDY    41  28  60 W5        30.15F
$$

NVZ035-037-231100-
CENTRAL NEVADA

CITY           SKY/WX    TMP DP  RH WIND       PRES   REMARKS
ELY            CLEAR     44  20  38 S15       30.20F
EUREKA           N/A     44  18  35 S3        30.14F
$$

NVZ013-014-231100-
SOUTH CENTRAL NEVADA

CITY           SKY/WX    TMP DP  RH WIND       PRES   REMARKS
TONOPAH        CLOUDY    44  14  29 N10       30.18F
$$

NVZ017-020-022-231100-
SOUTHERN NEVADA

CITY           SKY/WX    TMP DP  RH WIND       PRES   REMARKS
LAS VEGAS      PTCLDY    64  30  27 S7        30.00F
N. LAS VEGAS   PTCLDY    63  33  32 CALM      30.03F
NELLIS AFB     PTCLDY    60  28  29 S2        30.03S
HENDERSON      CLEAR     62  29  29 S8        30.06F
MERCURY        MOCLDY    52  20  28 NW5       30.08F
$$



USA.gov is the U.S. government's official web portal to all federal, state and local government web resources and services.